Location: Pescara
(42.4670°N, 14.2170°E)
Time: 17:43:05
(UTC+02:00)

ISS - Pass Details

Date: 15 May 2021
Orbit: 417 x 422 km, 51.6° (Epoch: 18 June)

Event Time Altitude Azimuth Distance (km) Brightness Sun altitude
Rises 23:37:33 0° 275° (W) 2,362 0.4 -25.6°
Reaches altitude 10° 23:39:57 10° 291° (WNW) 1,501 -0.5 -25.8°
Maximum altitude 23:42:40 22° 345° (NNW) 966 -1.2 -25.9°
Drops below altitude 10° 23:45:25 10° 39° (NE) 1,507 -0.6 -26.1°
Sets 23:47:50 0° 55° (NE) 2,374 0.3 -26.3°
